[[{"header":{"parameterUnit":"m.s-1","parameterCategory":1,"la1":30.2991,"la2":30.254,"lo1":-89.0895,"lo2":-89.0444,"dy":0.0017,"dx":0.0017,"nx":28,"ny":28,"refTime":"2025-07-16T21:00:00:Z","depth":0,"parameterNumber":2,"parameterNumberName":"U-component_of_WINDS"},"data":[0,0,0,0,0,0,0,0,0,0,0,0,0,0,0,0,0,0,0,0,0,0,0,0,0,0,0,0,0,0,0,0,0,0,0,0,0,0,0,0,0,0,0,0,0,0,0,0,0,0,0,0,0,0,0,0,0,0,-1.5302,-1.5303,0,-1.5371,-1.5372,-1.5373,-1.5436,-1.5436,-1.5437,-1.5438,-1.5502,-1.5503,-1.5504,0,0,0,0,0,0,0,0,0,0,0,0,0,-1.5219,-1.522,-1.5302,-1.5303,-1.5304,-1.5371,-1.5372,-1.5373,-1.5436,-1.5436,-1.5437,-1.5438,-1.5502,-1.5503,-1.5504,0,0,0,0,0,0,0,0,0,0,0,0,0,-1.5268,-1.5221,-1.5302,-1.5343,-1.5348,-1.5371,-1.5372,-1.5373,-1.5435,-1.5437,-1.5438,-1.5439,-1.5501,-1.5503,-1.5504,-1.549,0,0,-1.5509,-1.5509,0,0,0,0,0,0,0,0,-1.5265,-1.5271,-1.5336,-1.5341,-1.5346,-1.5396,-1.5366,-1.5412,-1.5435,-1.5402,-1.5438,-1.5439,-1.5465,-1.547,-1.548,-1.5493,-1.5496,-1.5509,-1.551,-1.551,-1.5511,0,0,0,0,0,0,0,-1.5262,-1.5268,-1.5329,-1.5337,-1.5343,-1.5357,-1.5365,-1.5375,-1.5426,-1.5405,-1.541,-1.5417,-1.5468,-1.5479,-1.5482,-1.5497,-1.5509,-1.551,-1.5511,-1.5512,-1.5501,-1.55,0,0,0,0,0,0,-1.5253,-1.5265,-1.5327,-1.5331,-1.5308,-1.5357,-1.5367,-1.5379,-1.5426,-1.5435,-1.5416,-1.542,-1.5475,-1.548,-1.5485,-1.547,-1.551,-1.5512,-1.5513,-1.5502,-1.5501,-1.5499,0,0,0,0,0,0,-1.5251,-1.5258,-1.5324,-1.53,-1.5309,-1.5358,-1.537,-1.5379,-1.539,-1.5435,-1.5444,-1.5418,-1.5477,-1.5482,-1.5489,-1.5473,-1.5512,-1.5514,-1.5503,-1.5502,-1.55,-1.5442,0,0,0,0,0,0,-1.5248,-1.5257,-1.5253,-1.5299,-1.531,-1.5328,-1.537,-1.538,-1.5393,-1.5399,-1.5439,-1.5446,-1.5478,-1.5486,-1.549,-1.5476,-1.5515,-1.5505,-1.5503,-1.5501,-1.5445,-1.5438,-1.5432,0,0,0,0,0,-1.5245,-1.5232,-1.5252,-1.5259,-1.5307,-1.5327,-1.5334,-1.5372,-1.5392,-1.5387,-1.5416,-1.5445,-1.5475,-1.5486,-1.5491,-1.5477,-1.5506,-1.5503,-1.5501,-1.5448,-1.544,-1.5433,0,0,0,0,0,0,-1.518,-1.5239,-1.5262,-1.5264,-1.5291,-1.5338,-1.5334,-1.5362,-1.5381,-1.5385,-1.5431,-1.5439,-1.544,-1.546,-1.5471,-1.5466,-1.5494,-1.5493,-1.5453,-1.5445,-1.5439,-1.5433,-1.5516,0,0,0,0,0,-1.5167,-1.5181,-1.5231,-1.5228,-1.524,-1.5285,-1.5295,-1.5323,-1.5351,-1.5362,-1.5391,-1.5416,-1.5431,-1.5439,-1.5456,-1.5449,-1.5458,-1.5443,-1.5436,-1.5431,-1.5428,-1.5425,-1.5418,-1.5491,-1.5491,-1.5491,0,0,-1.5137,-1.5172,-1.5177,-1.5215,-1.5239,-1.5251,-1.5293,-1.5303,-1.5312,-1.5362,-1.537,-1.5393,-1.5423,-1.5423,-1.5424,-1.5439,-1.541,-1.5427,-1.5423,-1.5423,-1.5422,-1.5415,-1.5408,-1.5489,-1.5489,-1.549,0,0,-1.5091,-1.5119,-1.5119,-1.5143,-1.5179,-1.5209,-1.5209,-1.5253,-1.5271,-1.528,-1.5318,-1.5328,-1.5353,-1.5374,-1.5387,-1.5349,-1.5376,-1.5353,-1.5319,-1.5315,-1.531,-1.5305,-1.529,-1.5284,-1.5351,-1.5351,-1.5351,0,-1.5049,-1.507,-1.5115,-1.5124,-1.5139,-1.5189,-1.5188,-1.5208,-1.5247,-1.5255,-1.5273,-1.5306,-1.533,-1.5335,-1.5326,-1.5336,-1.5336,-1.5348,-1.5307,-1.5303,-1.5299,-1.5285,-1.5279,-1.5348,-1.5348,-1.5348,-1.5349,0,-1.5017,-1.5031,-1.5027,-1.5065,-1.5081,-1.5084,-1.5128,-1.5138,-1.5165,-1.5192,-1.5201,-1.5232,-1.5255,-1.5259,-1.5284,-1.5267,-1.5275,-1.5299,-1.5328,-1.5288,-1.5276,-1.5271,-1.5343,-1.5344,-1.5345,-1.5346,0,0,-1.4928,-1.4994,-1.4991,-1.501,-1.5055,-1.5065,-1.5071,-1.5097,-1.5103,-1.5129,-1.5133,-1.5155,-1.5178,-1.5193,-1.5221,-1.5219,-1.5185,-1.5243,-1.5245,-1.523,-1.5167,-1.5146,-1.514,-1.5205,-1.5204,-1.5203,-1.5163,0,-1.4887,-1.4903,-1.4944,-1.4946,-1.4959,-1.5007,-1.5012,-1.5039,-1.5066,-1.5079,-1.5107,-1.5121,-1.5151,-1.5161,-1.5161,-1.5189,-1.5173,-1.5193,-1.5207,-1.5207,-1.5195,-1.5134,-1.5112,-1.5073,-1.5159,-1.5158,-1.5158,0,-1.484,-1.4865,-1.4869,-1.4914,-1.4921,-1.4925,-1.4952,-1.4965,-1.4996,-1.5015,-1.5033,-1.5066,-1.5073,-1.5102,-1.5111,-1.5124,-1.5132,-1.5147,-1.5147,-1.5147,-1.5178,-1.513,-1.5062,-1.5055,-1.5151,-1.5151,-1.5152,0,-1.4773,-1.4808,-1.4815,-1.4829,-1.4882,-1.4884,-1.4906,-1.4939,-1.4951,-1.4974,-1.4982,-1.5005,-1.5017,-1.5033,-1.5069,-1.5087,-1.5074,-1.5106,-1.5088,-1.5087,-1.5081,-1.508,-1.501,-1.509,-1.509,-1.509,-1.509,0,-1.4721,-1.4721,-1.4786,-1.4789,-1.4791,-1.4838,-1.4837,-1.4864,-1.4893,-1.4901,-1.4944,-1.495,-1.5,-1.5012,-1.5041,-1.5043,-1.5048,-1.5062,-1.507,-1.5057,-1.5055,-1.5061,-1.5064,-1.5089,-1.5089,-1.5089,-1.509,0,-1.4645,-1.4689,-1.4699,-1.475,-1.4763,-1.4761,-1.4803,-1.4808,-1.4838,-1.4848,-1.4853,-1.4899,-1.4915,-1.4955,-1.498,-1.5,-1.4994,-1.5009,-1.4983,-1.4988,-1.4967,-1.4967,-1.4896,-1.4888,-1.4975,-1.4974,-1.4973,0,-1.4608,-1.461,-1.4662,-1.4672,-1.4692,-1.4708,-1.4722,-1.4769,-1.4781,-1.4818,-1.4817,-1.4838,-1.4856,-1.4879,-1.4913,-1.4933,-1.4947,-1.4922,-1.495,-1.4938,-1.4945,-1.4943,-1.4943,-1.4914,-1.4913,-1.4912,-1.4911,0,-1.4537,-1.4559,-1.4579,-1.4607,-1.4623,-1.4646,-1.4671,-1.4676,-1.4729,-1.4741,-1.4759,-1.4774,-1.4801,-1.482,-1.4845,-1.4866,-1.4896,-1.4902,-1.4899,-1.4885,-1.4869,-1.4875,-1.4963,-1.4903,-1.4904,-1.4904,-1.4905,-1.4905,-1.4478,-1.4482,-1.4519,-1.454,-1.4565,-1.4588,-1.4595,-1.4627,-1.4644,-1.4672,-1.4699,-1.4714,-1.4745,-1.4783,-1.4801,-1.4812,-1.4828,-1.4823,-1.4822,-1.4819,-1.4813,-1.487,-1.4817,-1.4818,-1.4818,-1.4818,-1.4818,0,-1.4408,-1.4435,-1.4454,-1.449,-1.4505,-1.4537,-1.4567,-1.4577,-1.4591,-1.4619,-1.4637,-1.4657,-1.4676,-1.4713,-1.4734,-1.4736,-1.475,-1.474,-1.4739,-1.4742,-1.4799,-1.4799,-1.4728,-1.4728,-1.4728,-1.4728,-1.4728,-1.4728,-1.4373,-1.4381,-1.4407,-1.4427,-1.4454,-1.4471,-1.4485,-1.4506,-1.4529,-1.4551,-1.4568,-1.4593,-1.4624,-1.4648,-1.4666,-1.4676,-1.4681,-1.4665,-1.4679,-1.473,-1.4739,-1.4747,-1.4747,-1.4666,-1.4666,-1.4622,-1.4622,-1.4622]},{"header":{"parameterUnit":"m.s-1","parameterCategory":1,"la1":30.2991,"la2":30.254,"lo1":-89.0895,"lo2":-89.0444,"dy":0.0017,"dx":0.0017,"nx":28,"ny":28,"refTime":"2025-07-16T21:00:00:Z","depth":0,"parameterNumber":3,"parameterNumberName":"V-component_of_WINDS"},"data":[0,0,0,0,0,0,0,0,0,0,0,0,0,0,0,0,0,0,0,0,0,0,0,0,0,0,0,0,0,0,0,0,0,0,0,0,0,0,0,0,0,0,0,0,0,0,0,0,0,0,0,0,0,0,0,0,0,0,3.8046,3.8047,0,3.8124,3.8125,3.8126,3.8134,3.8134,3.8133,3.8132,3.8206,3.8208,3.8211,0,0,0,0,0,0,0,0,0,0,0,0,0,3.79,3.7902,3.8046,3.8047,3.8048,3.8124,3.8125,3.8126,3.8134,3.8134,3.8133,3.8132,3.8205,3.8208,3.8211,0,0,0,0,0,0,0,0,0,0,0,0,0,3.7969,3.7903,3.8046,3.8061,3.8064,3.8124,3.8125,3.8126,3.8135,3.8134,3.8132,3.8131,3.8204,3.8208,3.8212,3.8259,0,0,3.8224,3.8226,0,0,0,0,0,0,0,0,3.7965,3.7974,3.8058,3.806,3.8063,3.8118,3.81,3.8171,3.8135,3.8107,3.8132,3.8131,3.8177,3.8183,3.82,3.8263,3.8266,3.8224,3.8227,3.8229,3.823,0,0,0,0,0,0,0,3.796,3.7971,3.8076,3.8059,3.8062,3.8063,3.8072,3.8114,3.8148,3.811,3.8111,3.812,3.8178,3.8196,3.8202,3.8267,3.8224,3.8228,3.823,3.8232,3.8373,3.8375,0,0,0,0,0,0,3.7953,3.7967,3.8074,3.8079,3.801,3.8067,3.8076,3.8102,3.8147,3.8153,3.8121,3.812,3.819,3.8197,3.8205,3.8264,3.8229,3.8232,3.8235,3.8372,3.8374,3.8375,0,0,0,0,0,0,3.795,3.7963,3.8071,3.8023,3.8037,3.807,3.8099,3.8104,3.8122,3.8156,3.8161,3.8134,3.819,3.8199,3.8246,3.8267,3.8234,3.8238,3.837,3.8373,3.8374,3.8382,0,0,0,0,0,0,3.7946,3.7961,3.7981,3.8024,3.804,3.8113,3.81,3.8106,3.813,3.8129,3.8169,3.8174,3.8189,3.824,3.825,3.8271,3.8241,3.8369,3.8371,3.8374,3.838,3.8384,3.8388,0,0,0,0,0,3.794,3.7978,3.7982,3.7995,3.8065,3.8114,3.8123,3.8141,3.8131,3.815,3.8172,3.8173,3.8263,3.8245,3.8256,3.8279,3.8368,3.8371,3.8374,3.8379,3.8384,3.8388,0,0,0,0,0,0,3.7934,3.7984,3.7988,3.8042,3.8074,3.8115,3.814,3.8145,3.8179,3.8177,3.8196,3.8205,3.8252,3.827,3.8249,3.8328,3.8314,3.832,3.8314,3.8319,3.8323,3.8317,3.8244,0,0,0,0,0,3.794,3.7977,3.8018,3.8061,3.8077,3.8106,3.8128,3.8139,3.8172,3.8185,3.8211,3.8241,3.8276,3.8299,3.8333,3.8384,3.8392,3.8405,3.8408,3.8411,3.8415,3.8444,3.845,3.8385,3.8385,3.8385,0,0,3.795,3.7982,3.8004,3.8061,3.8087,3.8124,3.8117,3.8156,3.8183,3.819,3.8237,3.8257,3.8292,3.8342,3.8365,3.8358,3.8435,3.8415,3.8417,3.842,3.8447,3.8454,3.8459,3.8387,3.8387,3.8386,0,0,3.7988,3.8016,3.8056,3.8083,3.8124,3.8143,3.8152,3.8194,3.8208,3.8256,3.8262,3.8294,3.8354,3.838,3.84,3.845,3.8452,3.846,3.8479,3.8506,3.8512,3.8516,3.8534,3.854,3.8464,3.8464,3.8464,0,3.7995,3.8053,3.8075,3.8114,3.8139,3.815,3.819,3.8214,3.8263,3.8279,3.8272,3.8349,3.8373,3.8429,3.8441,3.8458,3.8468,3.8455,3.851,3.8514,3.8519,3.8536,3.8542,3.8465,3.8465,3.8465,3.8465,0,3.806,3.81,3.8126,3.8176,3.8204,3.8243,3.8269,3.8294,3.8304,3.8323,3.8372,3.8402,3.8443,3.8457,3.8466,3.8514,3.8509,3.8506,3.8492,3.8525,3.8542,3.8548,3.8466,3.8466,3.8466,3.8466,0,0,3.8094,3.8158,3.8167,3.819,3.8237,3.8267,3.8307,3.8349,3.837,3.8404,3.8436,3.8488,3.8486,3.8509,3.8521,3.8545,3.8583,3.8539,3.854,3.8546,3.8638,3.864,3.8647,3.8585,3.8587,3.8588,3.8635,0,3.8137,3.821,3.8232,3.8292,3.8329,3.8341,3.8376,3.8407,3.8427,3.846,3.8481,3.8518,3.8512,3.8526,3.8551,3.8573,3.8601,3.857,3.8615,3.8616,3.8605,3.8656,3.8657,3.8701,3.8641,3.8642,3.8643,0,3.8196,3.8234,3.8299,3.8343,3.8359,3.839,3.8431,3.8463,3.8499,3.8511,3.8539,3.8549,3.859,3.8575,3.8631,3.8609,3.8628,3.8642,3.8644,3.8648,3.8631,3.866,3.8715,3.8721,3.8653,3.8653,3.8652,0,3.8214,3.8281,3.8329,3.8349,3.8401,3.8422,3.8444,3.8479,3.8504,3.8539,3.8555,3.8594,3.8615,3.8644,3.8664,3.8652,3.8718,3.8705,3.8729,3.8728,3.8741,3.874,3.8799,3.8755,3.8755,3.8755,3.8755,0,3.826,3.8299,3.8339,3.8368,3.8412,3.8436,3.8479,3.8501,3.8533,3.8566,3.8578,3.8608,3.8633,3.8667,3.8682,3.8726,3.8735,3.8746,3.8749,3.8744,3.8743,3.8756,3.8754,3.8757,3.8756,3.8756,3.8756,0,3.8286,3.8315,3.8368,3.8414,3.8427,3.8457,3.8495,3.8524,3.8545,3.8586,3.8597,3.863,3.867,3.8693,3.8743,3.8754,3.8802,3.8804,3.879,3.8792,3.8814,3.8811,3.8883,3.8894,3.8843,3.8844,3.8844,0,3.8313,3.8344,3.8394,3.8419,3.8442,3.848,3.8506,3.8531,3.8557,3.8602,3.8625,3.8666,3.87,3.8764,3.879,3.8829,3.8832,3.8854,3.8837,3.8832,3.8831,3.8829,3.8832,3.8857,3.8857,3.8857,3.8858,0,3.8357,3.837,3.8408,3.8452,3.8483,3.8518,3.8552,3.8571,3.8602,3.863,3.8673,3.87,3.8752,3.8793,3.8834,3.8855,3.8861,3.8863,3.8871,3.8865,3.8856,3.8861,3.8798,3.8861,3.8861,3.886,3.886,3.886,3.8384,3.8413,3.8453,3.8495,3.8525,3.8557,3.8587,3.8613,3.8649,3.8695,3.8708,3.8752,3.8788,3.8844,3.8866,3.89,3.8896,3.8907,3.891,3.8912,3.8912,3.8852,3.8908,3.8908,3.8908,3.8908,3.8908,0,3.8428,3.8456,3.8495,3.8544,3.8577,3.8584,3.8622,3.8649,3.8689,3.8723,3.8758,3.8806,3.8846,3.8877,3.8918,3.8939,3.8943,3.8949,3.8947,3.8952,3.8914,3.8903,3.8945,3.8945,3.8945,3.8945,3.8945,3.8945,3.8455,3.8504,3.8522,3.8586,3.8612,3.8658,3.868,3.8709,3.8737,3.8792,3.8826,3.8847,3.888,3.8923,3.896,3.8968,3.8982,3.8987,3.8995,3.8959,3.8955,3.8951,3.8941,3.899,3.899,3.9031,3.9031,3.9031]}]]